Location: Fort Hays State University
(38.8712°N, 99.3432°W)
Time: 16:03:53
(UTC-05:00)

Cosmos 2279 Rocket - Visible Passes

Search period start: 24 April 2017 00:00
Search period end: 04 May 2017 00:00
Orbit: 964 x 980 km, 82.9° (Epoch: 23 April)

Date Brightness Start Highest point End Pass type
(mag) Time Alt. Az. Time Alt. Az. Time Alt. Az.
24 Apr 4.6 22:21:20 10° SSW 22:27:27 57° W 22:33:36 10° N visible
25 Apr 4.6 21:01:07 10° SSE 21:06:42 36° E 21:12:16 10° NNE visible
25 Apr 5.6 22:46:28 10° SW 22:51:57 32° WNW 22:57:28 10° NNW visible
26 Apr 4.0 21:24:40 10° S 21:30:50 65° E 21:36:59 10° NNE visible
26 Apr 6.4 23:12:32 10° WSW 23:16:38 18° WNW 23:20:45 10° NNW visible
27 Apr 4.3 21:48:53 10° SSW 21:55:06 72° W 22:01:20 10° N visible
28 Apr 5.3 22:13:45 10° SW 22:19:32 40° WNW 22:25:21 10° N visible
29 Apr 4.2 20:52:33 10° SSE 20:58:33 52° E 21:04:33 10° NNE visible
29 Apr 6.3 22:39:24 10° WSW 22:44:08 22° WNW 22:48:54 10° NNW visible
30 Apr 4.1 21:16:32 10° S 21:22:46 88° WNW 21:29:02 10° N visible
30 Apr 6.8 23:06:39 10° W 23:08:57 12° WNW 23:11:15 10° NW visible
01 May 5.0 21:41:09 10° SSW 21:47:08 49° W 21:53:10 10° N visible
02 May 6.0 22:06:28 10° SW 22:11:40 28° WNW 22:16:56 10° NNW visible
03 May 6.8 22:32:54 10° WSW 22:36:24 15° WNW 22:39:56 10° NNW visible
